Home > Weather > Pontiac > Past weeks

Flag for U.S.A. Weather for the Past 2 Weeks in Pontiac, Michigan, U.S.A.

Now
3 °F

More clouds than sun.


Feels Like: -4 °F
Forecast: 2 / 13 °F
Wind: 3 mph from North

Location: Oakland County International Airport

Current Time: Feb 13, 2016 at 10:19:41 AM

Latest Report: Feb 13, 2016 at 9:53 AM


Visibility: 7 mi

Pressure: 30.45 "Hg

Humidity: 76%

Dew point: -3 °F

Location of PontiacLocation

Historic Weather in Pontiac — Graph

°F

Pontiac Temperature Yesterday

Maximum temperature yesterday: 21 °F (at 12:53 PM)
Minimum temperature yesterday: 5 °F (at 11:53 PM)
Average temperature yesterday: 13 °F

High & Low Weather Summary for the Past Weeks

 TemperatureHumidityPressure
High52 °F (Feb 3, 9:53 AM)97% (Feb 3, 1:53 AM)30.42 "Hg (Feb 3, 1:53 AM)
Low-1 °F (Feb 13, 6:00 AM)42% (Feb 6, 1:53 PM)29.45 "Hg (Feb 3, 4:53 AM)
Average29 °F75%29.92 "Hg
* Reported Jan 29 9:53 AM — Feb 13 9:00 AM, Pontiac, Weather by CustomWeather, © 2016

Note: Actual official high and low records may vary slightly from our data, if they occured in-between our weather recording intervals... More about our weather records

Advertising

Pontiac Weather History for the Previous 24 Hours

 ConditionsComfort  
Time TempWeatherWind HumidityBarometerVisibility
9:00 AM
Sat, Feb 13
1 °FBroken clouds.5 mph75%30.37 "Hg10 mi
7:53 AM0 °FPartly sunny.No wind79%30.42 "Hg9 mi
6:53 AM0 °FPassing clouds.3 mph75%30.40 "Hg7 mi
6:00 AM-1 °FOvercast.5 mph71%30.32 "Hg10 mi
4:53 AM0 °FClear.8 mph68%30.37 "Hg10 mi
3:53 AM0 °FClear.8 mph71%30.34 "Hg10 mi
2:53 AM2 °FClear.12 mph69%30.32 "Hg10 mi
1:53 AM4 °FPassing clouds.14 mph69%30.29 "Hg10 mi
12:53 AM4 °FPassing clouds.10 mph63%30.28 "Hg10 mi
11:53 PM
Fri, Feb 12
5 °FPassing clouds.18 mph54%30.25 "Hg10 mi
10:53 PM7 °FPassing clouds.18 mph52%30.22 "Hg10 mi
9:53 PM8 °FPassing clouds.18 mph54%30.18 "Hg9 mi
8:53 PM10 °FPassing clouds.22 mph55%30.15 "Hg5 mi
7:53 PM13 °FLight snow. Overcast.18 mph74%30.10 "Hg2 mi
6:53 PM15 °FPassing clouds.17 mph67%30.06 "Hg10 mi
5:53 PM16 °FLight snow. Partly sunny.15 mph67%30.03 "Hg6 mi
4:56 PM18 °FSnow. Cloudy.23 mph65%29.94 "Hg1 mi
3:53 PM19 °FMore clouds than sun.17 mph65%29.97 "Hg6 mi
3:04 PM18 °FSnow. Low clouds.21 mph77%29.91 "Hg1 mi
1:53 PM20 °FPartly sunny.17 mph78%29.95 "Hg3 mi
12:53 PM21 °FLight snow. Cloudy.17 mph68%29.97 "Hg5 mi
11:53 AM20 °FLight snow. Mostly cloudy.14 mph78%30.00 "Hg2 mi
10:53 AM19 °FLight snow. Mostly cloudy.15 mph71%30.01 "Hg2 mi
Weather by CustomWeather, © 2016

See weather overviewHow to use our weather pages